Regional Weather Roundup
Issued by NWS Charleston, SC

Current Version | Previous Version | Graphics & Text | Print | Product List | Glossary Off
Versions: 1 2 3 4 5 6 7 8 9 10 11 12 13 14 15 16 17 18 19 20 21 22 23 24 25 26 27 28 29 30 31 32 33 34 35 36 37 38 39 40 41 42 43 44 45 46 47 48 49 50

000
ASUS42 KCHS 171112
RWRCHS

Regional Weather Roundup
National Weather Service Charleston SC
600 AM EST WED JAN 17 2018

NOTE: "fair" indicates few or no clouds below 12,000 feet with no
significant weather and/or obstructions to visibility.

Not all stations are quality controlled. Use data with caution,
especially dewpoint observations.

SCZ027-030-031-034>040-042>050-171200-
...Southeast South Carolina...

CITY           SKY/WX    TMP DP  RH WIND       PRES   REMARKS
N Charleston   FAIR      35  34  96 CALM      30.23F
Waterfront Prk NOT AVBL
Mount Pleasant FAIR      34  32  93 CALM      30.24S
Johns Island   FAIR      34  32  93 CALM      30.23F
Pinopolis        N/A     37  36  93 CALM      30.16F
Moncks Corner  FAIR      30  30 100 CALM      30.23S
Summerville    FAIR      32  32 100 CALM      30.24S
Beaufort MCAS  FAIR      38  37  97 VRB3      30.25R
Beaufort Arpt  FAIR      36  36 100 NW7       30.24R FOG     WCI  30
Hilton Head Is NOT AVBL
Walterboro     FAIR      30  30 100 CALM      30.25S
Allendale      CLOUDY    43  37  81 CALM      30.24R

...Southern Midlands and Pee Dee...

CITY           SKY/WX    TMP DP  RH WIND       PRES   REMARKS
Georgetown     FAIR      32  30  93 CALM      30.25S
Kingstree      CLOUDY    36  34  93 CALM      30.23F
Orangeburg     CLOUDY    41  35  79 W3        30.23S
Barnwell         N/A     45  37  76 CALM      30.24R
Aiken          CLOUDY    39  32  75 W9        30.27R WCI  33
Manning        CLOUDY    37  34  87 MISG      30.23F
Columbia       CLOUDY    44  36  73 W6        30.23S
Sumter         CLOUDY    41  34  77 CALM      30.20S
Florence       CLOUDY    38  34  85 SE5       30.23F WCI  34
Myrtle Beach   FAIR      32  29  88 CALM      30.25F
N Myrtle Beach FAIR      31  30  96 CALM      30.24S

$$

GAZ063-065-086>088-099>101-113>116-118-119-134>141-150-171200-
...Southeast Georgia...

CITY           SKY/WX    TMP DP  RH WIND       PRES   REMARKS
Savannah Arpt  FAIR      38  36  92 CALM      30.25R
Hunter AAF     FAIR      34  32  90 W6        30.22R WCI  29
Fort Stewart   FAIR      36  34  92 CALM      30.23S
Statesboro     CLOUDY    40  40  99 CALM      30.25R
Sylvania       CLOUDY    41  39  91 NW3       30.25S
Claxton        CLOUDY    39  38  97 CALM      30.26R

...CSRA, Central and far Southeast Georgia...

CITY           SKY/WX    TMP DP  RH WIND       PRES   REMARKS
Thomson        LGT RAIN  35  29  79 N9        30.33S WCI  28
Augusta-Bush   LGT RAIN  42  32  67 NW8       30.26R
Augusta-Daniel CLOUDY    41  31  67 W10       30.26R
Swainsboro     CLOUDY    41  36  81 NW7       30.27S
Vidalia        CLOUDY    45  36  70 NW7       30.26S
Eastman        CLOUDY    39  26  58 NW7       30.33R WCI  34
Hazlehurst     CLOUDY    45  34  65 NW6       30.26S
Alma           CLOUDY    43  38  82 NW5       30.25F
Waycross       CLOUDY    40  38  90 N5        30.26F WCI  37
Jesup          FAIR      41  37  87 NW5       30.26R
Baxley         CLOUDY    41  39  93 CALM      30.25F
Brunswick      FAIR      37  36  93 NW9       30.26R FOG     WCI  31
Saint Simons   CLOUDY    37  37 100 W3        30.23S FOG

$$

SCZ027-028-034-036>038-045-046-048>050-GAZ119-141-171200-
...Lake and Supplemental Coastal Observations...

STATION/POSITION TIME  TEMP    WIND        PRES    WAVE   SWELL
                       AIR SEA DIR/SP/G            HT/PER HT/PER/DIR
                 (UTC) (F)     (DEG/KT/KT) (MB)    (FT/S) (FT/S/D)
Winyah Bay       NOT AVBL
Lake Murray      1020   44     290/  5/  6 1022.7
ACE Basin NERRS  0945   35        CALM     1024.0
Fort Pulaski     1042   42 46  310/  1/  2 1023.9S
Sapelo Island    1000   39      20/  1     1024.0

$$

ANZ835-935-AMZ111-154-330-350-352-354-370-450-454-472-171200-
...C-MAN and Buoy Observations...

STATION/POSITION TIME  TEMP    WIND        PRES    WAVE   SWELL
                       AIR SEA DIR/SP/G            HT/PER HT/PER/DIR
                 (UTC) (F)     (DEG/KT/KT) (MB)    (FT/S) (FT/S/D)
Buoy 41004       1050   59 70  350/  4/  6 1023.3F   5/11   5/100/11
Buoy 41008       1050   51 52  320/  4/  6 1023.4F   3/11   3/ 70/11
Folly Beach CMAN 1000   41     350/  4/  5 1024.2F
Capers Nearshore NOT AVBL
Fripp Nearshore  NOT AVBL


STATION/POSITION TIME  TEMP    WIND        PRES    WAVE   SWELL
                       AIR SEA DIR/SP/G            HT/PER HT/PER/DIR
                 (UTC) (F)     (DEG/KT/KT) (MB)    (FT/S) (FT/S/D)
5E St. Marys GA  1030      50                N/A     3/10   2/ 80/11
Frying Pan Buoy  1050   56 64   30/  6/ 10 1023.6F   4/11   3/110/11
Buoy 41025       1050   49 70  360/ 14/ 16 1025.0R   6/11   5/ 70/11
Cape Lookout NC  1000          340/  7/  7 1024.4F
Buoy 41002       1050   68 70  120/ 10/ 14 1021.5R   7/11   7/ 80/11
Buoy 41010       NOT AVBL
St Augustine FL  1100   51 50  300/  5/  5 1024.0R


$$




USA.gov is the U.S. government's official web portal to all federal, state and local government web resources and services.